TimeCST,TemperatureF,Dew PointF,Humidity,Sea Level PressureIn,VisibilityMPH,Wind Direction,Wind SpeedMPH,Gust SpeedMPH,PrecipitationIn,Events,Conditions,WindDirDegrees,DateUTC
12:11 AM,33.8,30.2,87,30.07,10.0,South,6.9,-,N/A,,Clear,170,2012-11-08 06:11:00
12:32 AM,33.8,30.2,87,30.07,10.0,South,9.2,-,N/A,,Clear,180,2012-11-08 06:32:00
12:51 AM,33.8,30.2,87,30.06,10.0,South,8.1,-,N/A,,Clear,180,2012-11-08 06:51:00
1:11 AM,33.8,30.2,87,30.06,10.0,South,9.2,-,N/A,,Clear,170,2012-11-08 07:11:00
1:32 AM,33.8,30.2,87,30.05,10.0,South,8.1,-,N/A,,Clear,170,2012-11-08 07:32:00
1:51 AM,33.8,30.2,87,30.05,10.0,SSE,6.9,-,N/A,,Clear,160,2012-11-08 07:51:00
2:11 AM,33.8,30.2,87,30.05,10.0,South,8.1,-,N/A,,Clear,170,2012-11-08 08:11:00
2:32 AM,33.8,30.2,87,30.04,10.0,SSE,8.1,-,N/A,,Clear,160,2012-11-08 08:32:00
2:51 AM,33.8,30.2,87,30.04,10.0,South,6.9,-,N/A,,Clear,170,2012-11-08 08:51:00
3:11 AM,33.8,30.2,87,30.03,10.0,SSE,9.2,-,N/A,,Clear,160,2012-11-08 09:11:00
3:32 AM,33.8,30.2,87,30.02,10.0,South,8.1,-,N/A,,Clear,170,2012-11-08 09:32:00
3:51 AM,33.8,30.2,87,30.01,10.0,South,6.9,-,N/A,,Clear,170,2012-11-08 09:51:00
4:11 AM,33.8,30.2,87,30.01,10.0,SSE,9.2,-,N/A,,Clear,160,2012-11-08 10:11:00
4:32 AM,33.8,30.2,87,30.00,10.0,SSE,11.5,-,N/A,,Clear,160,2012-11-08 10:32:00
4:51 AM,32.0,30.2,93,30.00,10.0,South,11.5,-,N/A,,Clear,170,2012-11-08 10:51:00
5:11 AM,33.8,30.2,87,30.00,10.0,South,11.5,16.1,N/A,,Clear,170,2012-11-08 11:11:00
5:32 AM,33.8,30.2,87,30.00,10.0,South,9.2,-,N/A,,Clear,170,2012-11-08 11:32:00
5:51 AM,33.8,30.2,87,29.99,10.0,SSE,10.4,-,N/A,,Clear,160,2012-11-08 11:51:00
6:11 AM,33.8,30.2,87,29.99,10.0,SSE,11.5,-,N/A,,Clear,160,2012-11-08 12:11:00
6:31 AM,33.8,30.2,87,29.99,10.0,South,9.2,-,N/A,,Clear,170,2012-11-08 12:31:00
6:51 AM,33.8,30.2,87,29.98,10.0,South,9.2,-,N/A,,Clear,170,2012-11-08 12:51:00
7:12 AM,33.8,30.2,87,29.98,10.0,SSE,12.7,-,N/A,,Clear,160,2012-11-08 13:12:00
7:31 AM,33.8,30.2,87,29.98,10.0,South,13.8,-,N/A,,Clear,170,2012-11-08 13:31:00
7:51 AM,35.6,30.2,81,29.98,10.0,SSE,11.5,-,N/A,,Clear,160,2012-11-08 13:51:00
8:12 AM,35.6,32.0,87,29.98,10.0,South,12.7,-,N/A,,Clear,170,2012-11-08 14:12:00
8:31 AM,37.4,33.8,87,29.98,10.0,South,15.0,20.7,N/A,,Clear,170,2012-11-08 14:31:00
8:51 AM,39.2,33.8,81,29.99,10.0,South,15.0,23.0,N/A,,Clear,180,2012-11-08 14:51:00
9:12 AM,39.2,33.8,81,29.98,10.0,South,17.3,25.3,N/A,,Clear,180,2012-11-08 15:12:00
9:31 AM,41.0,33.8,76,29.98,10.0,South,16.1,26.5,N/A,,Clear,180,2012-11-08 15:31:00
9:51 AM,42.8,35.6,76,29.98,10.0,South,15.0,20.7,N/A,,Clear,180,2012-11-08 15:51:00
10:12 AM,42.8,35.6,76,29.97,10.0,South,18.4,26.5,N/A,,Clear,180,2012-11-08 16:12:00
10:31 AM,42.8,35.6,76,29.97,10.0,South,13.8,23.0,N/A,,Clear,180,2012-11-08 16:31:00
10:51 AM,44.6,35.6,71,29.97,10.0,South,16.1,21.9,N/A,,Clear,180,2012-11-08 16:51:00
11:12 AM,46.4,37.4,71,29.96,10.0,South,12.7,-,N/A,,Clear,170,2012-11-08 17:12:00
11:31 AM,48.2,39.2,71,29.96,10.0,South,13.8,-,N/A,,Clear,170,2012-11-08 17:31:00
11:51 AM,48.2,39.2,71,29.94,10.0,South,17.3,-,N/A,,Clear,170,2012-11-08 17:51:00
12:12 PM,51.8,39.2,62,29.94,10.0,South,16.1,20.7,N/A,,Clear,180,2012-11-08 18:12:00
12:31 PM,51.8,37.4,58,29.93,10.0,South,13.8,21.9,N/A,,Clear,190,2012-11-08 18:31:00
12:51 PM,51.8,39.2,62,29.93,10.0,South,12.7,19.6,N/A,,Clear,190,2012-11-08 18:51:00
1:12 PM,53.6,39.2,58,29.92,10.0,South,13.8,19.6,N/A,,Clear,180,2012-11-08 19:12:00
1:31 PM,53.6,39.2,58,29.92,10.0,South,10.4,-,N/A,,Clear,190,2012-11-08 19:31:00
1:51 PM,53.6,39.2,58,29.92,10.0,SSW,9.2,19.6,N/A,,Clear,200,2012-11-08 19:51:00
2:12 PM,55.4,37.4,51,29.92,10.0,SSW,11.5,17.3,N/A,,Clear,200,2012-11-08 20:12:00
2:31 PM,55.4,37.4,51,29.92,10.0,SSW,5.8,-,N/A,,Clear,200,2012-11-08 20:31:00
2:51 PM,55.4,37.4,51,29.92,10.0,SSW,8.1,17.3,N/A,,Clear,210,2012-11-08 20:51:00
3:11 PM,55.4,37.4,51,29.92,10.0,SSW,9.2,-,N/A,,Clear,200,2012-11-08 21:11:00
3:31 PM,55.4,37.4,51,29.93,10.0,SSW,5.8,-,N/A,,Clear,210,2012-11-08 21:31:00
3:52 PM,55.4,37.4,51,29.93,10.0,South,8.1,-,N/A,,Clear,190,2012-11-08 21:52:00
4:11 PM,53.6,37.4,54,29.93,10.0,South,8.1,-,N/A,,Clear,180,2012-11-08 22:11:00
4:31 PM,53.6,37.4,54,29.93,10.0,South,6.9,-,N/A,,Clear,190,2012-11-08 22:31:00
4:52 PM,51.8,37.4,58,29.94,10.0,South,4.6,-,N/A,,Clear,170,2012-11-08 22:52:00
5:11 PM,50.0,37.4,62,29.94,10.0,SSE,4.6,-,N/A,,Clear,160,2012-11-08 23:11:00
5:31 PM,48.2,37.4,66,29.94,10.0,SSE,4.6,-,N/A,,Clear,160,2012-11-08 23:31:00
5:52 PM,46.4,37.4,71,29.94,10.0,SSE,5.8,-,N/A,,Clear,150,2012-11-08 23:52:00
6:11 PM,46.4,37.4,71,29.95,10.0,SSE,5.8,-,N/A,,Clear,160,2012-11-09 00:11:00
6:31 PM,46.4,37.4,71,29.95,10.0,SSE,5.8,-,N/A,,Clear,160,2012-11-09 00:31:00
6:52 PM,44.6,37.4,76,29.95,10.0,SSE,5.8,-,N/A,,Clear,150,2012-11-09 00:52:00
7:11 PM,44.6,37.4,76,29.95,10.0,SSE,5.8,-,N/A,,Clear,150,2012-11-09 01:11:00
7:31 PM,44.6,37.4,76,29.95,10.0,SSE,5.8,-,N/A,,Clear,160,2012-11-09 01:31:00
7:52 PM,42.8,37.4,81,29.95,10.0,SSE,5.8,-,N/A,,Clear,150,2012-11-09 01:52:00
8:11 PM,42.8,37.4,81,29.96,10.0,SE,4.6,-,N/A,,Clear,140,2012-11-09 02:11:00
8:31 PM,42.8,37.4,81,29.96,10.0,SE,3.5,-,N/A,,Clear,130,2012-11-09 02:31:00
8:52 PM,42.8,37.4,81,29.96,10.0,SE,3.5,-,N/A,,Clear,130,2012-11-09 02:52:00
9:11 PM,41.0,37.4,87,29.96,10.0,SE,4.6,-,N/A,,Clear,130,2012-11-09 03:11:00
9:31 PM,41.0,37.4,87,29.96,10.0,SE,5.8,-,N/A,,Clear,140,2012-11-09 03:31:00
9:52 PM,39.2,37.4,93,29.97,10.0,SE,4.6,-,N/A,,Clear,140,2012-11-09 03:52:00
10:11 PM,39.2,35.6,87,29.97,10.0,SE,4.6,-,N/A,,Clear,140,2012-11-09 04:11:00
10:31 PM,39.2,35.6,87,29.97,10.0,Calm,Calm,-,N/A,,Clear,0,2012-11-09 04:31:00
10:52 PM,39.2,35.6,87,29.97,10.0,ESE,3.5,-,N/A,,Clear,120,2012-11-09 04:52:00
11:11 PM,39.2,35.6,87,29.97,10.0,East,3.5,-,N/A,,Clear,100,2012-11-09 05:11:00
11:31 PM,37.4,35.6,93,29.97,10.0,Calm,Calm,-,N/A,,Clear,0,2012-11-09 05:31:00
11:52 PM,37.4,35.6,93,29.97,10.0,SE,3.5,-,N/A,,Clear,130,2012-11-09 05:52:00